owner,sensor,date,latitude,longitude,vertical_datum,wind_speed,wind_to_direction,wind_speed_of_gust,qcFlag 
DISL,ioos:station:DISL:MHPA:1,2010-01-01T06:30:00Z,30.6671,-87.9365,8.5,2.55,92.5,-9999.0,'1111122,1111122,1111122' 
DISL,ioos:station:DISL:MHPA:1,2010-01-01T07:00:00Z,30.6671,-87.9365,8.5,1.92,42.38,-9999.0,'1111122,1111122,1111122' 
DISL,ioos:station:DISL:MHPA:1,2010-01-01T07:30:00Z,30.6671,-87.9365,8.5,3.92,351.5,-9999.0,'1111122,1111122,1111122' 
DISL,ioos:station:DISL:MHPA:1,2010-01-01T08:00:00Z,30.6671,-87.9365,8.5,3.47,0.427,-9999.0,'1111122,1111122,1111122' 
DISL,ioos:station:DISL:MHPA:1,2010-01-01T08:30:00Z,30.6671,-87.9365,8.5,3.47,354.9,-9999.0,'1111122,1111122,1111122' 
DISL,ioos:station:DISL:MHPA:1,2010-01-01T09:00:00Z,30.6671,-87.9365,8.5,4.6,5.655,-9999.0,'1111122,1111122,1111122' 
DISL,ioos:station:DISL:MHPA:1,2010-01-01T09:30:00Z,30.6671,-87.9365,8.5,3.38,7.53,-9999.0,'1111122,1111122,1111122' 
DISL,ioos:station:DISL:MHPA:1,2010-01-01T10:00:00Z,30.6671,-87.9365,8.5,3.13,19.02,-9999.0,'1111122,1111122,1111122' 
DISL,ioos:station:DISL:MHPA:1,2010-01-01T10:30:00Z,30.6671,-87.9365,8.5,2.41,22.78,-9999.0,'1111122,1111122,1111122' 
DISL,ioos:station:DISL:MHPA:1,2010-01-01T11:00:00Z,30.6671,-87.9365,8.5,3.1,12.84,-9999.0,'1111122,1111122,1111122' 
DISL,ioos:station:DISL:MHPA:1,2010-01-01T11:30:00Z,30.6671,-87.9365,8.5,3.43,9.52,-9999.0,'1111122,1111122,1111122' 
DISL,ioos:station:DISL:MHPA:1,2010-01-01T12:00:00Z,30.6671,-87.9365,8.5,3.46,20.17,-9999.0,'1111122,1111122,1111122' 
DISL,ioos:station:DISL:MHPA:1,2010-01-01T12:30:00Z,30.6671,-87.9365,8.5,4.29,11.93,-9999.0,'1111122,1111122,1111122' 
DISL,ioos:station:DISL:MHPA:1,2010-01-01T13:00:00Z,30.6671,-87.9365,8.5,5.57,0.435,-9999.0,'1111122,1111122,1111122' 
DISL,ioos:station:DISL:MHPA:1,2010-01-01T13:30:00Z,30.6671,-87.9365,8.5,4.55,355.1,-9999.0,'1111122,1111122,1111122' 
DISL,ioos:station:DISL:MHPA:1,2010-01-01T14:00:00Z,30.6671,-87.9365,8.5,5.23,351.4,-9999.0,'1111122,1111122,1111122' 
DISL,ioos:station:DISL:MHPA:1,2010-01-01T14:30:00Z,30.6671,-87.9365,8.5,5.54,358.0,-9999.0,'1111122,1111122,1111122' 
DISL,ioos:station:DISL:MHPA:1,2010-01-01T15:00:00Z,30.6671,-87.9365,8.5,4.89,354.0,-9999.0,'1111122,1111122,1111122' 
DISL,ioos:station:DISL:MHPA:1,2010-01-01T15:30:00Z,30.6671,-87.9365,8.5,6.22,348.2,-9999.0,'1111122,1111122,1111122' 
DISL,ioos:station:DISL:MHPA:1,2010-01-01T16:00:00Z,30.6671,-87.9365,8.5,6.81,349.4,-9999.0,'1111122,1111122,1111122' 
DISL,ioos:station:DISL:MHPA:1,2010-01-01T16:30:00Z,30.6671,-87.9365,8.5,6.75,353.0,-9999.0,'1111122,1111122,1111122' 
DISL,ioos:station:DISL:MHPA:1,2010-01-01T17:00:00Z,30.6671,-87.9365,8.5,6.77,359.1,-9999.0,'1111122,1111122,1111122' 
DISL,ioos:station:DISL:MHPA:1,2010-01-01T17:30:00Z,30.6671,-87.9365,8.5,6.36,1.848,-9999.0,'1111122,1111122,1111122' 
DISL,ioos:station:DISL:MHPA:1,2010-01-01T18:00:00Z,30.6671,-87.9365,8.5,6.97,351.7,-9999.0,'1111122,1111122,1111122' 
DISL,ioos:station:DISL:MHPA:1,2010-01-01T18:30:00Z,30.6671,-87.9365,8.5,6.64,353.8,-9999.0,'1111122,1111122,1111122' 
DISL,ioos:station:DISL:MHPA:1,2010-01-01T19:00:00Z,30.6671,-87.9365,8.5,6.47,7.3,-9999.0,'1111122,1111122,1111122' 
DISL,ioos:station:DISL:MHPA:1,2010-01-01T19:30:00Z,30.6671,-87.9365,8.5,6.2,353.9,-9999.0,'1111122,1111122,1111122' 
DISL,ioos:station:DISL:MHPA:1,2010-01-01T20:00:00Z,30.6671,-87.9365,8.5,6.04,359.1,-9999.0,'1111122,1111122,1111122' 
DISL,ioos:station:DISL:MHPA:1,2010-01-01T20:30:00Z,30.6671,-87.9365,8.5,6.74,4.294,-9999.0,'1111122,1111122,1111122' 
DISL,ioos:station:DISL:MHPA:1,2010-01-01T21:00:00Z,30.6671,-87.9365,8.5,6.53,2.609,-9999.0,'1111122,1111122,1111122' 
DISL,ioos:station:DISL:MHPA:1,2010-01-01T21:30:00Z,30.6671,-87.9365,8.5,5.26,352.5,-9999.0,'1111122,1111122,1111122' 
DISL,ioos:station:DISL:MHPA:1,2010-01-01T22:00:00Z,30.6671,-87.9365,8.5,5.83,355.6,-9999.0,'1111122,1111122,1111122' 
DISL,ioos:station:DISL:MHPA:1,2010-01-01T22:30:00Z,30.6671,-87.9365,8.5,5.84,342.0,-9999.0,'1111122,1111122,1111122' 
DISL,ioos:station:DISL:MHPA:1,2010-01-01T23:00:00Z,30.6671,-87.9365,8.5,4.6,352.6,-9999.0,'1111122,1111122,1111122' 
DISL,ioos:station:DISL:MHPA:1,2010-01-01T23:30:00Z,30.6671,-87.9365,8.5,3.15,341.0,-9999.0,'1111122,1111122,1111122' 
DISL,ioos:station:DISL:MHPA:1,2010-01-02T00:00:00Z,30.6671,-87.9365,8.5,3.26,342.5,-9999.0,'1111122,1111122,1111122' 
DISL,ioos:station:DISL:MHPA:1,2010-01-02T00:30:00Z,30.6671,-87.9365,8.5,3.41,342.2,-9999.0,'1111122,1111122,1111122' 
DISL,ioos:station:DISL:MHPA:1,2010-01-02T01:00:00Z,30.6671,-87.9365,8.5,4.7,355.8,-9999.0,'1111122,1111122,1111122' 
DISL,ioos:station:DISL:MHPA:1,2010-01-02T01:30:00Z,30.6671,-87.9365,8.5,5.27,354.6,-9999.0,'1111122,1111122,1111122' 
DISL,ioos:station:DISL:MHPA:1,2010-01-02T02:00:00Z,30.6671,-87.9365,8.5,4.06,350.7,-9999.0,'1111122,1111122,1111122' 
DISL,ioos:station:DISL:MHPA:1,2010-01-02T02:30:00Z,30.6671,-87.9365,8.5,4.13,351.0,-9999.0,'1111122,1111122,1111122' 
DISL,ioos:station:DISL:MHPA:1,2010-01-02T03:00:00Z,30.6671,-87.9365,8.5,2.93,337.5,-9999.0,'1111122,1111122,1111122' 
DISL,ioos:station:DISL:MHPA:1,2010-01-02T03:30:00Z,30.6671,-87.9365,8.5,2.44,343.5,-9999.0,'1111122,1111122,1111122' 
DISL,ioos:station:DISL:MHPA:1,2010-01-02T04:00:00Z,30.6671,-87.9365,8.5,2.16,339.9,-9999.0,'1111122,1111122,1111122' 
DISL,ioos:station:DISL:MHPA:1,2010-01-02T04:30:00Z,30.6671,-87.9365,8.5,2.53,348.8,-9999.0,'1111122,1111122,1111122' 
DISL,ioos:station:DISL:MHPA:1,2010-01-02T05:00:00Z,30.6671,-87.9365,8.5,2.26,346.8,-9999.0,'1111122,1111122,1111122' 
DISL,ioos:station:DISL:MHPA:1,2010-01-02T05:30:00Z,30.6671,-87.9365,8.5,1.47,334.6,-9999.0,'1111122,1111122,1111122' 
DISL,ioos:station:DISL:MHPA:1,2010-01-02T06:00:00Z,30.6671,-87.9365,8.5,2.04,327.1,-9999.0,'1111122,1111122,1111122' 
DISL,ioos:station:DISL:MHPA:1,2010-01-02T06:30:00Z,30.6671,-87.9365,8.5,2.26,331.3,-9999.0,'1111122,1111122,1111122' 
DISL,ioos:station:DISL:MHPA:1,2010-01-02T07:00:00Z,30.6671,-87.9365,8.5,2.57,329.7,-9999.0,'1111122,1111122,1111122' 
DISL,ioos:station:DISL:MHPA:1,2010-01-02T07:30:00Z,30.6671,-87.9365,8.5,2.43,343.1,-9999.0,'1111122,1111122,1111122' 
DISL,ioos:station:DISL:MHPA:1,2010-01-02T08:00:00Z,30.6671,-87.9365,8.5,2.65,356.0,-9999.0,'1111122,1111122,1111122' 
DISL,ioos:station:DISL:MHPA:1,2010-01-02T08:30:00Z,30.6671,-87.9365,8.5,2.54,358.5,-9999.0,'1111122,1111122,1111122' 
DISL,ioos:station:DISL:MHPA:1,2010-01-02T09:00:00Z,30.6671,-87.9365,8.5,2.2,343.5,-9999.0,'1111122,1111122,1111122' 
DISL,ioos:station:DISL:MHPA:1,2010-01-02T09:30:00Z,30.6671,-87.9365,8.5,1.91,1.368,-9999.0,'1111122,1111122,1111122' 
DISL,ioos:station:DISL:MHPA:1,2010-01-02T10:00:00Z,30.6671,-87.9365,8.5,1.6,7.63,-9999.0,'1111122,1111122,1111122' 
DISL,ioos:station:DISL:MHPA:1,2010-01-02T10:30:00Z,30.6671,-87.9365,8.5,2.26,18.6,-9999.0,'1111122,1111122,1111122' 
DISL,ioos:station:DISL:MHPA:1,2010-01-02T11:00:00Z,30.6671,-87.9365,8.5,1.88,6.961,-9999.0,'1111122,1111122,1111122' 
DISL,ioos:station:DISL:MHPA:1,2010-01-02T11:30:00Z,30.6671,-87.9365,8.5,2.54,3.598,-9999.0,'1111122,1111122,1111122' 
DISL,ioos:station:DISL:MHPA:1,2010-01-02T12:00:00Z,30.6671,-87.9365,8.5,2.33,0.941,-9999.0,'1111122,1111122,1111122' 
DISL,ioos:station:DISL:MHPA:1,2010-01-02T12:30:00Z,30.6671,-87.9365,8.5,1.27,13.98,-9999.0,'1111122,1111122,1111122' 
DISL,ioos:station:DISL:MHPA:1,2010-01-02T13:00:00Z,30.6671,-87.9365,8.5,1.29,13.59,-9999.0,'1111122,1111122,1111122' 
DISL,ioos:station:DISL:MHPA:1,2010-01-02T13:30:00Z,30.6671,-87.9365,8.5,2.08,11.81,-9999.0,'1111122,1111122,1111122' 
DISL,ioos:station:DISL:MHPA:1,2010-01-02T14:00:00Z,30.6671,-87.9365,8.5,3.63,5.811,-9999.0,'1111122,1111122,1111122' 
DISL,ioos:station:DISL:MHPA:1,2010-01-02T14:30:00Z,30.6671,-87.9365,8.5,3.49,2.984,-9999.0,'1111122,1111122,1111122' 
DISL,ioos:station:DISL:MHPA:1,2010-01-02T15:00:00Z,30.6671,-87.9365,8.5,4.37,13.07,-9999.0,'1111122,1111122,1111122' 
DISL,ioos:station:DISL:MHPA:1,2010-01-02T15:30:00Z,30.6671,-87.9365,8.5,3.86,20.29,-9999.0,'1111122,1111122,1111122' 
DISL,ioos:station:DISL:MHPA:1,2010-01-02T16:00:00Z,30.6671,-87.9365,8.5,3.37,15.5,-9999.0,'1111122,1111122,1111122' 
DISL,ioos:station:DISL:MHPA:1,2010-01-02T16:30:00Z,30.6671,-87.9365,8.5,4.78,353.5,-9999.0,'1111122,1111122,1111122' 
DISL,ioos:station:DISL:MHPA:1,2010-01-02T17:00:00Z,30.6671,-87.9365,8.5,5.29,7.81,-9999.0,'1111122,1111122,1111122' 
DISL,ioos:station:DISL:MHPA:1,2010-01-02T17:30:00Z,30.6671,-87.9365,8.5,5.17,359.2,-9999.0,'1111122,1111122,1111122' 
DISL,ioos:station:DISL:MHPA:1,2010-01-02T18:00:00Z,30.6671,-87.9365,8.5,4.76,3.092,-9999.0,'1111122,1111122,1111122' 
DISL,ioos:station:DISL:MHPA:1,2010-01-02T18:30:00Z,30.6671,-87.9365,8.5,6.17,353.5,-9999.0,'1111122,1111122,1111122' 
DISL,ioos:station:DISL:MHPA:1,2010-01-02T19:00:00Z,30.6671,-87.9365,8.5,4.63,0.145,-9999.0,'1111122,1111122,1111122' 
DISL,ioos:station:DISL:MHPA:1,2010-01-02T19:30:00Z,30.6671,-87.9365,8.5,4.55,355.2,-9999.0,'1111122,1111122,1111122' 
DISL,ioos:station:DISL:MHPA:1,2010-01-02T20:00:00Z,30.6671,-87.9365,8.5,4.41,3.473,-9999.0,'1111122,1111122,1111122' 
DISL,ioos:station:DISL:MHPA:1,2010-01-02T20:30:00Z,30.6671,-87.9365,8.5,4.32,5.433,-9999.0,'1111122,1111122,1111122' 
DISL,ioos:station:DISL:MHPA:1,2010-01-02T21:00:00Z,30.6671,-87.9365,8.5,4.4,354.8,-9999.0,'1111122,1111122,1111122' 
DISL,ioos:station:DISL:MHPA:1,2010-01-02T21:30:00Z,30.6671,-87.9365,8.5,4.55,356.3,-9999.0,'1111122,1111122,1111122' 
DISL,ioos:station:DISL:MHPA:1,2010-01-02T22:00:00Z,30.6671,-87.9365,8.5,5.01,346.8,-9999.0,'1111122,1111122,1111122' 
DISL,ioos:station:DISL:MHPA:1,2010-01-02T22:30:00Z,30.6671,-87.9365,8.5,3.82,8.49,-9999.0,'1111122,1111122,1111122' 
DISL,ioos:station:DISL:MHPA:1,2010-01-02T23:00:00Z,30.6671,-87.9365,8.5,2.43,3.498,-9999.0,'1111122,1111122,1111122' 
DISL,ioos:station:DISL:MHPA:1,2010-01-02T23:30:00Z,30.6671,-87.9365,8.5,2.7,337.6,-9999.0,'1111122,1111122,1111122' 
DISL,ioos:station:DISL:MHPA:1,2010-01-03T00:00:00Z,30.6671,-87.9365,8.5,1.66,17.13,-9999.0,'1111122,1111122,1111122' 
DISL,ioos:station:DISL:MHPA:1,2010-01-03T00:30:00Z,30.6671,-87.9365,8.5,1.27,27.39,-9999.0,'1111122,1111122,1111122' 
DISL,ioos:station:DISL:MHPA:1,2010-01-03T01:00:00Z,30.6671,-87.9365,8.5,0.93,33.67,-9999.0,'1111122,1111122,1111122' 
DISL,ioos:station:DISL:MHPA:1,2010-01-03T01:30:00Z,30.6671,-87.9365,8.5,1.5,33.37,-9999.0,'1111122,1111122,1111122' 
DISL,ioos:station:DISL:MHPA:1,2010-01-03T02:00:00Z,30.6671,-87.9365,8.5,2.0,33.69,-9999.0,'1111122,1111122,1111122' 
DISL,ioos:station:DISL:MHPA:1,2010-01-03T02:30:00Z,30.6671,-87.9365,8.5,2.08,35.05,-9999.0,'1111122,1111122,1111122' 
DISL,ioos:station:DISL:MHPA:1,2010-01-03T03:00:00Z,30.6671,-87.9365,8.5,1.89,34.52,-9999.0,'1111122,1111122,1111122' 
DISL,ioos:station:DISL:MHPA:1,2010-01-03T03:30:00Z,30.6671,-87.9365,8.5,2.51,24.45,-9999.0,'1111122,1111122,1111122' 
DISL,ioos:station:DISL:MHPA:1,2010-01-03T04:00:00Z,30.6671,-87.9365,8.5,2.81,22.3,-9999.0,'1111122,1111122,1111122' 
DISL,ioos:station:DISL:MHPA:1,2010-01-03T04:30:00Z,30.6671,-87.9365,8.5,2.86,12.76,-9999.0,'1111122,1111122,1111122' 
DISL,ioos:station:DISL:MHPA:1,2010-01-03T05:00:00Z,30.6671,-87.9365,8.5,3.01,22.44,-9999.0,'1111122,1111122,1111122' 
DISL,ioos:station:DISL:MHPA:1,2010-01-03T05:30:00Z,30.6671,-87.9365,8.5,2.98,23.41,-9999.0,'1111122,1111122,1111122' 
DISL,ioos:station:DISL:MHPA:1,2010-01-03T06:00:00Z,30.6671,-87.9365,8.5,2.02,26.45,-9999.0,'1111122,1111122,1111122' 
DISL,ioos:station:DISL:MHPA:1,2010-01-03T06:30:00Z,30.6671,-87.9365,8.5,2.61,13.9,-9999.0,'1111122,1111122,1111122' 
DISL,ioos:station:DISL:MHPA:1,2010-01-03T07:00:00Z,30.6671,-87.9365,8.5,2.23,45.59,-9999.0,'1111122,1111122,1111122' 
DISL,ioos:station:DISL:MHPA:1,2010-01-03T07:30:00Z,30.6671,-87.9365,8.5,2.53,14.98,-9999.0,'1111122,1111122,1111122' 
DISL,ioos:station:DISL:MHPA:1,2010-01-03T08:00:00Z,30.6671,-87.9365,8.5,2.57,16.63,-9999.0,'1111122,1111122,1111122' 
DISL,ioos:station:DISL:MHPA:1,2010-01-03T08:30:00Z,30.6671,-87.9365,8.5,1.91,7.08,-9999.0,'1111122,1111122,1111122' 
DISL,ioos:station:DISL:MHPA:1,2010-01-03T09:00:00Z,30.6671,-87.9365,8.5,1.71,358.6,-9999.0,'1111122,1111122,1111122' 
DISL,ioos:station:DISL:MHPA:1,2010-01-03T09:30:00Z,30.6671,-87.9365,8.5,2.42,1.897,-9999.0,'1111122,1111122,1111122' 
DISL,ioos:station:DISL:MHPA:1,2010-01-03T10:00:00Z,30.6671,-87.9365,8.5,3.15,9.19,-9999.0,'1111122,1111122,1111122' 
DISL,ioos:station:DISL:MHPA:1,2010-01-03T10:30:00Z,30.6671,-87.9365,8.5,2.95,11.08,-9999.0,'1111122,1111122,1111122' 
DISL,ioos:station:DISL:MHPA:1,2010-01-03T11:00:00Z,30.6671,-87.9365,8.5,2.92,9.14,-9999.0,'1111122,1111122,1111122' 
DISL,ioos:station:DISL:MHPA:1,2010-01-03T11:30:00Z,30.6671,-87.9365,8.5,3.0,18.05,-9999.0,'1111122,1111122,1111122' 
DISL,ioos:station:DISL:MHPA:1,2010-01-03T12:00:00Z,30.6671,-87.9365,8.5,2.76,28.72,-9999.0,'1111122,1111122,1111122' 
DISL,ioos:station:DISL:MHPA:1,2010-01-03T12:30:00Z,30.6671,-87.9365,8.5,3.26,39.04,-9999.0,'1111122,1111122,1111122' 
DISL,ioos:station:DISL:MHPA:1,2010-01-03T13:00:00Z,30.6671,-87.9365,8.5,2.71,30.57,-9999.0,'1111122,1111122,1111122' 
DISL,ioos:station:DISL:MHPA:1,2010-01-03T13:30:00Z,30.6671,-87.9365,8.5,3.04,38.8,-9999.0,'1111122,1111122,1111122' 
DISL,ioos:station:DISL:MHPA:1,2010-01-03T14:00:00Z,30.6671,-87.9365,8.5,2.62,23.66,-9999.0,'1111122,1111122,1111122' 
DISL,ioos:station:DISL:MHPA:1,2010-01-03T14:30:00Z,30.6671,-87.9365,8.5,2.81,23.4,-9999.0,'1111122,1111122,1111122' 
DISL,ioos:station:DISL:MHPA:1,2010-01-03T15:00:00Z,30.6671,-87.9365,8.5,2.74,27.33,-9999.0,'1111122,1111122,1111122' 
DISL,ioos:station:DISL:MHPA:1,2010-01-03T15:30:00Z,30.6671,-87.9365,8.5,3.56,11.67,-9999.0,'1111122,1111122,1111122' 
DISL,ioos:station:DISL:MHPA:1,2010-01-03T16:00:00Z,30.6671,-87.9365,8.5,3.3,13.55,-9999.0,'1111122,1111122,1111122' 
DISL,ioos:station:DISL:MHPA:1,2010-01-03T16:30:00Z,30.6671,-87.9365,8.5,3.18,10.94,-9999.0,'1111122,1111122,1111122' 
DISL,ioos:station:DISL:MHPA:1,2010-01-03T17:00:00Z,30.6671,-87.9365,8.5,3.88,345.1,-9999.0,'1111122,1111122,1111122' 
DISL,ioos:station:DISL:MHPA:1,2010-01-03T17:30:00Z,30.6671,-87.9365,8.5,4.01,345.6,-9999.0,'1111122,1111122,1111122' 
DISL,ioos:station:DISL:MHPA:1,2010-01-03T18:00:00Z,30.6671,-87.9365,8.5,4.62,349.9,-9999.0,'1111122,1111122,1111122' 
DISL,ioos:station:DISL:MHPA:1,2010-01-03T18:30:00Z,30.6671,-87.9365,8.5,4.55,342.5,-9999.0,'1111122,1111122,1111122' 
DISL,ioos:station:DISL:MHPA:1,2010-01-03T19:00:00Z,30.6671,-87.9365,8.5,3.61,346.2,-9999.0,'1111122,1111122,1111122' 
DISL,ioos:station:DISL:MHPA:1,2010-01-03T19:30:00Z,30.6671,-87.9365,8.5,3.99,349.9,-9999.0,'1111122,1111122,1111122' 
DISL,ioos:station:DISL:MHPA:1,2010-01-03T20:00:00Z,30.6671,-87.9365,8.5,4.33,353.3,-9999.0,'1111122,1111122,1111122' 
DISL,ioos:station:DISL:MHPA:1,2010-01-03T20:30:00Z,30.6671,-87.9365,8.5,4.48,345.2,-9999.0,'1111122,1111122,1111122' 
DISL,ioos:station:DISL:MHPA:1,2010-01-03T21:00:00Z,30.6671,-87.9365,8.5,4.38,348.1,-9999.0,'1111122,1111122,1111122' 
DISL,ioos:station:DISL:MHPA:1,2010-01-03T21:30:00Z,30.6671,-87.9365,8.5,3.73,346.7,-9999.0,'1111122,1111122,1111122' 
DISL,ioos:station:DISL:MHPA:1,2010-01-03T22:00:00Z,30.6671,-87.9365,8.5,3.17,357.1,-9999.0,'1111122,1111122,1111122' 
DISL,ioos:station:DISL:MHPA:1,2010-01-03T22:30:00Z,30.6671,-87.9365,8.5,3.07,1.659,-9999.0,'1111122,1111122,1111122' 
DISL,ioos:station:DISL:MHPA:1,2010-01-03T23:00:00Z,30.6671,-87.9365,8.5,3.06,351.5,-9999.0,'1111122,1111122,1111122' 
DISL,ioos:station:DISL:MHPA:1,2010-01-03T23:30:00Z,30.6671,-87.9365,8.5,2.92,344.4,-9999.0,'1111122,1111122,1111122' 
DISL,ioos:station:DISL:MHPA:1,2010-01-04T00:00:00Z,30.6671,-87.9365,8.5,2.41,344.2,-9999.0,'1111122,1111122,1111122' 
DISL,ioos:station:DISL:MHPA:1,2010-01-04T00:30:00Z,30.6671,-87.9365,8.5,2.43,339.0,-9999.0,'1111122,1111122,1111122' 
DISL,ioos:station:DISL:MHPA:1,2010-01-04T01:00:00Z,30.6671,-87.9365,8.5,2.7,347.2,-9999.0,'1111122,1111122,1111122' 
DISL,ioos:station:DISL:MHPA:1,2010-01-04T01:30:00Z,30.6671,-87.9365,8.5,2.54,348.7,-9999.0,'1111122,1111122,1111122' 
DISL,ioos:station:DISL:MHPA:1,2010-01-04T02:00:00Z,30.6671,-87.9365,8.5,2.1,351.4,-9999.0,'1111122,1111122,1111122' 
DISL,ioos:station:DISL:MHPA:1,2010-01-04T02:30:00Z,30.6671,-87.9365,8.5,1.26,21.08,-9999.0,'1111122,1111122,1111122' 
DISL,ioos:station:DISL:MHPA:1,2010-01-04T03:00:00Z,30.6671,-87.9365,8.5,0.97,38.59,-9999.0,'1111122,1111122,1111122' 
DISL,ioos:station:DISL:MHPA:1,2010-01-04T03:30:00Z,30.6671,-87.9365,8.5,1.3,10.87,-9999.0,'1111122,1111122,1111122' 
DISL,ioos:station:DISL:MHPA:1,2010-01-04T04:00:00Z,30.6671,-87.9365,8.5,1.27,16.97,-9999.0,'1111122,1111122,1111122' 
DISL,ioos:station:DISL:MHPA:1,2010-01-04T04:30:00Z,30.6671,-87.9365,8.5,1.44,1.346,-9999.0,'1111122,1111122,1111122' 
DISL,ioos:station:DISL:MHPA:1,2010-01-04T05:00:00Z,30.6671,-87.9365,8.5,1.09,2.294,-9999.0,'1111122,1111122,1111122' 
DISL,ioos:station:DISL:MHPA:1,2010-01-04T05:30:00Z,30.6671,-87.9365,8.5,1.26,17.63,-9999.0,'1111122,1111122,1111122' 
DISL,ioos:station:DISL:MHPA:1,2010-01-04T06:00:00Z,30.6671,-87.9365,8.5,2.6,349.9,-9999.0,'1111122,1111122,1111122' 
DISL,ioos:station:DISL:MHPA:1,2010-01-04T06:30:00Z,30.6671,-87.9365,8.5,2.44,349.6,-9999.0,'1111122,1111122,1111122' 
DISL,ioos:station:DISL:MHPA:1,2010-01-04T07:00:00Z,30.6671,-87.9365,8.5,2.39,350.2,-9999.0,'1111122,1111122,1111122' 
DISL,ioos:station:DISL:MHPA:1,2010-01-04T07:30:00Z,30.6671,-87.9365,8.5,1.08,28.45,-9999.0,'1111122,1111122,1111122' 
DISL,ioos:station:DISL:MHPA:1,2010-01-04T08:00:00Z,30.6671,-87.9365,8.5,1.03,359.5,-9999.0,'1111122,1111122,1111122' 
DISL,ioos:station:DISL:MHPA:1,2010-01-04T08:30:00Z,30.6671,-87.9365,8.5,1.17,13.86,-9999.0,'1111122,1111122,1111122' 
DISL,ioos:station:DISL:MHPA:1,2010-01-04T09:00:00Z,30.6671,-87.9365,8.5,1.87,2.801,-9999.0,'1111122,1111122,1111122' 
DISL,ioos:station:DISL:MHPA:1,2010-01-04T09:30:00Z,30.6671,-87.9365,8.5,2.44,3.081,-9999.0,'1111122,1111122,1111122' 
DISL,ioos:station:DISL:MHPA:1,2010-01-04T10:00:00Z,30.6671,-87.9365,8.5,2.95,8.55,-9999.0,'1111122,1111122,1111122' 
DISL,ioos:station:DISL:MHPA:1,2010-01-04T10:30:00Z,30.6671,-87.9365,8.5,3.54,356.9,-9999.0,'1111122,1111122,1111122' 
DISL,ioos:station:DISL:MHPA:1,2010-01-04T11:00:00Z,30.6671,-87.9365,8.5,2.3,348.1,-9999.0,'1111122,1111122,1111122' 
DISL,ioos:station:DISL:MHPA:1,2010-01-04T11:30:00Z,30.6671,-87.9365,8.5,2.18,345.6,-9999.0,'1111122,1111122,1111122' 
DISL,ioos:station:DISL:MHPA:1,2010-01-04T12:00:00Z,30.6671,-87.9365,8.5,1.74,1.599,-9999.0,'1111122,1111122,1111122' 
DISL,ioos:station:DISL:MHPA:1,2010-01-04T12:30:00Z,30.6671,-87.9365,8.5,2.2,344.9,-9999.0,'1111122,1111122,1111122' 
DISL,ioos:station:DISL:MHPA:1,2010-01-04T13:00:00Z,30.6671,-87.9365,8.5,1.51,360.0,-9999.0,'1111122,1111122,1111122' 
DISL,ioos:station:DISL:MHPA:1,2010-01-04T13:30:00Z,30.6671,-87.9365,8.5,1.45,346.6,-9999.0,'1111122,1111122,1111122' 
DISL,ioos:station:DISL:MHPA:1,2010-01-04T14:00:00Z,30.6671,-87.9365,8.5,1.89,341.5,-9999.0,'1111122,1111122,1111122' 
DISL,ioos:station:DISL:MHPA:1,2010-01-04T14:30:00Z,30.6671,-87.9365,8.5,2.44,338.9,-9999.0,'1111122,1111122,1111122' 
DISL,ioos:station:DISL:MHPA:1,2010-01-04T15:00:00Z,30.6671,-87.9365,8.5,2.59,340.8,-9999.0,'1111122,1111122,1111122' 
DISL,ioos:station:DISL:MHPA:1,2010-01-04T15:30:00Z,30.6671,-87.9365,8.5,2.36,359.5,-9999.0,'1111122,1111122,1111122' 
DISL,ioos:station:DISL:MHPA:1,2010-01-04T16:00:00Z,30.6671,-87.9365,8.5,2.88,344.8,-9999.0,'1111122,1111122,1111122' 
DISL,ioos:station:DISL:MHPA:1,2010-01-04T16:30:00Z,30.6671,-87.9365,8.5,3.55,349.7,-9999.0,'1111122,1111122,1111122' 
DISL,ioos:station:DISL:MHPA:1,2010-01-04T17:00:00Z,30.6671,-87.9365,8.5,3.06,356.7,-9999.0,'1111122,1111122,1111122' 
DISL,ioos:station:DISL:MHPA:1,2010-01-04T17:30:00Z,30.6671,-87.9365,8.5,4.02,352.4,-9999.0,'1111122,1111122,1111122' 
DISL,ioos:station:DISL:MHPA:1,2010-01-04T18:00:00Z,30.6671,-87.9365,8.5,5.41,330.7,-9999.0,'1111122,1111122,1111122' 
DISL,ioos:station:DISL:MHPA:1,2010-01-04T18:30:00Z,30.6671,-87.9365,8.5,5.14,337.6,-9999.0,'1111122,1111122,1111122' 
DISL,ioos:station:DISL:MHPA:1,2010-01-04T19:00:00Z,30.6671,-87.9365,8.5,3.97,344.6,-9999.0,'1111122,1111122,1111122' 
DISL,ioos:station:DISL:MHPA:1,2010-01-04T19:30:00Z,30.6671,-87.9365,8.5,4.43,343.9,-9999.0,'1111122,1111122,1111122' 
DISL,ioos:station:DISL:MHPA:1,2010-01-04T20:00:00Z,30.6671,-87.9365,8.5,4.9,326.2,-9999.0,'1111122,1111122,1111122' 
DISL,ioos:station:DISL:MHPA:1,2010-01-04T20:30:00Z,30.6671,-87.9365,8.5,5.07,339.7,-9999.0,'1111122,1111122,1111122' 
DISL,ioos:station:DISL:MHPA:1,2010-01-04T21:00:00Z,30.6671,-87.9365,8.5,4.89,332.0,-9999.0,'1111122,1111122,1111122' 
DISL,ioos:station:DISL:MHPA:1,2010-01-04T21:30:00Z,30.6671,-87.9365,8.5,5.49,327.9,-9999.0,'1111122,1111122,1111122' 
DISL,ioos:station:DISL:MHPA:1,2010-01-04T22:00:00Z,30.6671,-87.9365,8.5,5.6,329.9,-9999.0,'1111122,1111122,1111122' 
DISL,ioos:station:DISL:MHPA:1,2010-01-04T22:30:00Z,30.6671,-87.9365,8.5,5.3,339.3,-9999.0,'1111122,1111122,1111122' 
DISL,ioos:station:DISL:MHPA:1,2010-01-04T23:00:00Z,30.6671,-87.9365,8.5,6.37,327.7,-9999.0,'1111122,1111122,1111122' 
DISL,ioos:station:DISL:MHPA:1,2010-01-04T23:30:00Z,30.6671,-87.9365,8.5,5.14,343.1,-9999.0,'1111122,1111122,1111122' 
DISL,ioos:station:DISL:MHPA:1,2010-01-05T00:00:00Z,30.6671,-87.9365,8.5,4.9,342.2,-9999.0,'1111122,1111122,1111122' 
DISL,ioos:station:DISL:MHPA:1,2010-01-05T00:30:00Z,30.6671,-87.9365,8.5,4.88,348.7,-9999.0,'1111122,1111122,1111122' 
DISL,ioos:station:DISL:MHPA:1,2010-01-05T01:00:00Z,30.6671,-87.9365,8.5,5.63,346.2,-9999.0,'1111122,1111122,1111122' 
DISL,ioos:station:DISL:MHPA:1,2010-01-05T01:30:00Z,30.6671,-87.9365,8.5,5.38,347.2,-9999.0,'1111122,1111122,1111122' 
DISL,ioos:station:DISL:MHPA:1,2010-01-05T02:00:00Z,30.6671,-87.9365,8.5,7.52,331.6,-9999.0,'1111122,1111122,1111122' 
DISL,ioos:station:DISL:MHPA:1,2010-01-05T02:30:00Z,30.6671,-87.9365,8.5,6.02,338.0,-9999.0,'1111122,1111122,1111122' 
DISL,ioos:station:DISL:MHPA:1,2010-01-05T03:00:00Z,30.6671,-87.9365,8.5,4.63,336.1,-9999.0,'1111122,1111122,1111122' 
DISL,ioos:station:DISL:MHPA:1,2010-01-05T03:30:00Z,30.6671,-87.9365,8.5,4.38,347.0,-9999.0,'1111122,1111122,1111122' 
DISL,ioos:station:DISL:MHPA:1,2010-01-05T04:00:00Z,30.6671,-87.9365,8.5,4.05,344.9,-9999.0,'1111122,1111122,1111122' 
DISL,ioos:station:DISL:MHPA:1,2010-01-05T04:30:00Z,30.6671,-87.9365,8.5,5.08,347.3,-9999.0,'1111122,1111122,1111122' 
DISL,ioos:station:DISL:MHPA:1,2010-01-05T05:00:00Z,30.6671,-87.9365,8.5,5.05,344.8,-9999.0,'1111122,1111122,1111122' 
DISL,ioos:station:DISL:MHPA:1,2010-01-05T05:30:00Z,30.6671,-87.9365,8.5,5.78,343.8,-9999.0,'1111122,1111122,1111122' 
DISL,ioos:station:DISL:MHPA:1,2010-01-05T06:00:00Z,30.6671,-87.9365,8.5,4.93,341.5,-9999.0,'1111122,1111122,1111122' 
DISL,ioos:station:DISL:MHPA:1,2010-01-05T06:30:00Z,30.6671,-87.9365,8.5,4.6,333.4,-9999.0,'1111122,1111122,1111122' 
DISL,ioos:station:DISL:MHPA:1,2010-01-05T07:00:00Z,30.6671,-87.9365,8.5,4.89,332.3,-9999.0,'1111122,1111122,1111122' 
DISL,ioos:station:DISL:MHPA:1,2010-01-05T07:30:00Z,30.6671,-87.9365,8.5,4.68,336.9,-9999.0,'1111122,1111122,1111122' 
DISL,ioos:station:DISL:MHPA:1,2010-01-05T08:00:00Z,30.6671,-87.9365,8.5,4.36,344.2,-9999.0,'1111122,1111122,1111122' 
DISL,ioos:station:DISL:MHPA:1,2010-01-05T08:30:00Z,30.6671,-87.9365,8.5,5.43,333.2,-9999.0,'1111122,1111122,1111122' 
DISL,ioos:station:DISL:MHPA:1,2010-01-05T09:00:00Z,30.6671,-87.9365,8.5,4.83,328.8,-9999.0,'1111122,1111122,1111122' 
DISL,ioos:station:DISL:MHPA:1,2010-01-05T09:30:00Z,30.6671,-87.9365,8.5,5.05,335.7,-9999.0,'1111122,1111122,1111122' 
DISL,ioos:station:DISL:MHPA:1,2010-01-05T10:00:00Z,30.6671,-87.9365,8.5,5.75,331.7,-9999.0,'1111122,1111122,1111122' 
DISL,ioos:station:DISL:MHPA:1,2010-01-05T10:30:00Z,30.6671,-87.9365,8.5,4.6,334.6,-9999.0,'1111122,1111122,1111122' 
DISL,ioos:station:DISL:MHPA:1,2010-01-05T11:00:00Z,30.6671,-87.9365,8.5,4.76,331.9,-9999.0,'1111122,1111122,1111122' 